DMSP 5D-3 F17 (USA 191) 
1 29522U 06050A   19257.88395168  .00000021  00000-0  33994-4 0  9998
2 29522  98.8184 273.2282 0009008 241.0732 118.9537 14.14000955663628
DMSP 5D-3 F17 DEB       
1 29524U 06050C   19257.63215459  .00000323  00000-0  17124-3 0  9998
2 29524  98.7494 283.2892 0007497 129.5277 345.8707 14.20387527664963
DMSP 5D-3 F17 DEB       
1 29525U 06050D   19257.82943722  .00000373  00000-0  19181-3 0  9991
2 29525  98.7335 284.2860 0006028 126.5078 286.8035 14.21121225665230
DMSP 5D-3 F17 DEB       
1 29600U 06050BS  19257.65896041  .00000405  00000-0  20157-3 0  9998
2 29600  98.7275 286.5411 0009336 141.5041 344.1743 14.22441713663641
DMSP 5D-3 F17 DEB       
1 29637U 06050BV  19257.89953968  .00001078  00000-0  48156-3 0  9992
2 29637  98.7172 291.7927 0009785 160.0548 200.1016 14.24744680662300